WR7DW-3 Weather Reports


Display with metric or nautical units.
time (UTC)temp
F
wind
direction
speed
MPH
gust
MPH
rain 1hr
in
rain 24hr
in
rain mn
in
humidity
%
barometer
mb
20260504231441 37 276 0.0 0.0 0.00 0.00 0.00 68 1006.3
20260504225941 37 144 0.0 0.0 0.00 0.00 0.00 66 1006.0
20260504224441 37 310 0.0 0.0 0.00 0.00 0.00 67 1006.0
20260504222941 38 289 0.0 0.0 0.00 0.00 0.00 67 1005.7
20260504221441 39 235 0.0 0.0 0.00 0.00 0.00 67 1005.5
20260504215941 39 288 0.0 0.0 0.00 0.00 0.00 66 1005.7
20260504214441 40 290 0.0 0.0 0.00 0.00 0.00 65 1005.6
20260504212941 40 229 0.0 0.0 0.00 0.00 0.00 65 1005.3
20260504211441 41 237 0.0 0.0 0.00 0.00 0.00 63 1005.6
20260504205941 42 15 0.0 0.0 0.00 0.00 0.00 60 1005.4
20260504204441 41 99 0.0 0.0 0.00 0.00 0.00 64 1005.6
20260504202941 42 174 0.0 0.0 0.00 0.00 0.00 61 1005.4
20260504201441 43 130 0.0 0.0 0.00 0.00 0.00 59 1005.4
20260504195941 42 118 0.0 0.0 0.00 0.00 0.00 62 1005.4
20260504194441 42 190 0.0 0.0 0.00 0.00 0.00 62 1005.4
20260504192941 43 287 0.0 0.0 0.00 0.00 0.00 60 1005.6
20260504191441 42 199 0.0 0.0 0.00 0.00 0.00 61 1005.6
20260504185941 42 288 0.0 0.0 0.00 0.00 0.00 63 1005.6
20260504184441 41 206 0.0 0.0 0.00 0.00 0.00 64 1005.6
20260504182942 41 136 0.0 0.0 0.00 0.00 0.00 63 1005.7
20260504181441 40 214 0.0 0.0 0.00 0.00 0.00 66 1005.4
20260504174441 39 320 0.0 0.0 0.00 0.00 0.00 67 1005.4
20260504172941 39 130 0.0 0.0 0.00 0.00 0.00 66 1005.4
20260504171441 39 268 0.0 0.0 0.00 0.00 0.00 65 1005.1
20260504081442 36 326 0.0 0.0 0.00 0.00 0.00 68 1001.7
20260504045943 50 321 0.0 0.0 0.00 0.00 0.00 44 1001.3
20260504044443 50 310 0.0 0.0 0.00 0.00 0.00 45 1001.4
20260504042943 50 321 0.0 0.0 0.00 0.00 0.00 44 1001.4
20260504041443 51 334 0.0 0.0 0.00 0.00 0.00 44 1001.5
20260504035943 51 328 0.0 0.0 0.00 0.00 0.00 43 1001.6
20260504034443 51 354 0.0 0.0 0.00 0.00 0.00 44 1001.6
20260504032943 51 320 0.0 0.0 0.00 0.00 0.00 44 1001.5
20260504031443 51 342 0.0 0.0 0.00 0.00 0.00 44 1001.4
20260504025943 51 334 0.0 0.0 0.00 0.00 0.00 44 1001.4
20260504024443 51 324 0.0 0.0 0.00 0.00 0.00 44 1001.2
20260504021443 52 320 0.0 0.0 0.00 0.00 0.00 42 1001.2
20260504015943 53 307 0.0 0.0 0.00 0.00 0.00 40 1001.2
20260504014443 53 316 0.0 0.0 0.00 0.00 0.00 41 1001.2
20260504012943 54 307 0.0 0.0 0.00 0.00 0.00 39 1001.3
20260504011447 55 308 0.0 0.0 0.00 0.00 0.00 38 1001.5
20260504005943 54 326 0.0 0.0 0.00 0.00 0.00 38 1001.4
20260504004443 55 297 0.0 0.0 0.00 0.00 0.00 38 1001.7
20260504002943 55 306 0.0 0.0 0.00 0.00 0.00 39 1002.2
20260504001443 55 305 0.0 0.0 0.00 0.00 0.00 38 1002.1
20260503235943 55 349 0.0 0.0 0.00 0.00 0.00 36 1002.5
20260503234443 55 310 0.0 0.0 0.00 0.00 0.00 36 1002.4
20260503232944 55 308 0.0 0.0 0.00 0.00 0.00 38 1002.4